STARLINK-1901 (46762 NORAD) Tracking and Keplerian Element Data

This shows tracking and keplerian element data for the satellite.

Feedback or suggestion? Click here.




ElementValue
Catalog46762
NameSTARLINK-1901
Epoch Orbit179
Epoch Day17.91667824
Epoch Year2021
RAAN121.7696
Inclination53.0533
Eccentricity0.0001155
Argument of Perigee111.6329
Mean Anonmoly162.7636
Mean Motion15.06421219
Decay Rate-0.00036653
L11 46762U 20074Z 21017.91667824 -.00036653 00000-0 -24531-2 0 9994
L22 46762 53.0533 121.7696 0001155 111.6329 162.7636 15.06421219 1792

Live tracking and technical data element details for STARLINK-1901 (NORAD 46762). STARLINK-1901 can be tracked NOW for your location showing map with azimuth and elevation plus other details from your city location.

Track the satellite on the map from your city or location and see movement details for azimuth, elevation, latitude, longitude, range, height, and movement on the map or in text.







IsCatalogInMostPopularTable: catalog: 46762, numindb: 26
Update: records affected: 1



GetName: 46762 STARLINK-1901

Hit Count: updated at: Mon, 18 Jan 2021 17:00:15 GMT